Regional Weather Roundup
Issued by NWS

Home | Current Version | Previous Version | Graphics & Text | Print | Product List | Glossary On
Versions: 1 2 3 4 5 6 7 8 9 10 11 12 13 14 15 16 17 18 19 20 21 22 23 24 25 26 27 28 29 30 31 32 33 34 35 36 37 38 39 40 41 42 43 44 45 46 47
000
ASUS45 KBOU 191610
RWRCO

WEATHER ROUNDUP FOR COLORADO
NATIONAL WEATHER SERVICE PUEBLO CO
1000 AM MDT THU APR 19 2018

NOTE: "FAIR" INDICATES FEW OR NO CLOUDS BELOW 12000 FEET WITH NO
SIGNIFICANT WEATHER AND/OR OBSTRUCTIONS TO VISIBILITY.

COZ001>005-013-030-031-191700-
...NORTHWEST COLORADO...

CITY           SKY/WX    TMP DP  RH WIND       PRES   REMARKS
CRAIG          MOSUNNY   51  21  30 NE15      30.03F
HAYDEN         PTSUNNY   49  21  33 E5        30.06F
MEEKER         PTSUNNY   39  23  52 CALM      30.03F
RABBIT EARS PA NOT AVBL
STEAMBOAT SPGS FAIR      43  19  37 CALM      30.07F
WALDEN         FAIR      37   5  25 CALM      30.15F
$$

COZ006>008-011-191700-
...WEST CENTRAL VALLEYS...

CITY           SKY/WX    TMP DP  RH WIND       PRES   REMARKS
GRAND JUNCTION MOSUNNY   55  13  18 SE18      29.96F
MONTROSE       SUNNY     56  10  16 VRB5      30.02F
EAGLE          MOSUNNY   39  14  36 CALM      30.14F
RIFLE          PTSUNNY   45  19  35 SW5       30.02F
DELTA          NOT AVBL
NUCLA          FAIR      50   9  18 N6        30.05F
$$

COZ017>023-064>068-191700-
...SOUTHWEST COLORADO...

CITY           SKY/WX    TMP DP  RH WIND       PRES   REMARKS
DURANGO        PTSUNNY   53  11  18 SE9G18    30.16F
CORTEZ         MOSUNNY   60   5  11 SE21G39   30.06F
PAGOSA SPRINGS FAIR      49   5  16 S7        30.22F
TELLURIDE      SUNNY     50   0  13 E7G32     30.16F
WOLF CREEK PAS SUNNY     30   7  37 S25G32    30.34F WCI  16
$$

COZ009-010-012-014-032>034-037-058>063-191700-
...CENTRAL COLORADO...

CITY           SKY/WX    TMP DP  RH WIND       PRES   REMARKS
ASPEN          MOSUNNY   54   4  13 SE14      30.10F
BUENA VISTA    FAIR      39   3  22 CALM      30.24F
COPPER MTN     NOT AVBL
BERTHOUD PASS  FAIR      28  18  64 S8        30.30R WCI  20
COTTONWOOD PAS SUNNY     39   5  24 CALM      30.26F
GUNNISON       MOSUNNY   48  10  21 N6        30.16F
KREMMLING      MOSUNNY   45  12  26 CALM      30.16F
LEADVILLE      MOSUNNY   32   8  36 S12       30.22F WCI  23
MONARCH PASS   MOSUNNY   32   1  27 S21       30.41S WCI  20
SALIDA         FAIR      41   8  25 E6        30.32F
SUNLIGHT       PTSUNNY   36   3  25 S7        30.22F
WILKERSON PASS MOSUNNY   32   3  29 S5        30.33S WCI  27
$$

COZ069>075-191700-
...SAN LUIS VALLEY/SANGRE DE CRISTO MOUNTAINS...

CITY           SKY/WX    TMP DP  RH WIND       PRES   REMARKS
ALAMOSA        SUNNY     51  11  20 S18       30.22F
DEL NORTE      FAIR      45   9  23 NE10G16   30.24F
LA VETA PASS   SUNNY     39  10  30 SW6G22    30.42R
SAGUACHE       NOT AVBL
$$

COZ035-036-038>040-191700-
...NORTHERN COLORADO FRONT RANGE...

CITY           SKY/WX    TMP DP  RH WIND       PRES   REMARKS
DENVER INTL AP PTSUNNY   52  15  23 S20G29    30.23F
DMNS CITY PARK NOT AVBL
AURORA         PTSUNNY   49  15  25 S12       30.22F
FRONT RANGE AP PTSUNNY   50  18  27 SE21G26   30.24F
ERIE MUNI ARPT FAIR      43  17  34 CALM      30.30F
BOULDER MUN AP FAIR      43  19  39 N6        30.24F
CENTENNIAL     PTSUNNY   49  15  25 S15G26    30.22F
BROOMFIELD     PTSUNNY   43  16  33 N3        30.24F
LOVELAND       MOSUNNY   42  19  39 VRB3      30.26F
LONGMONT       FAIR      49  20  31 NE5       30.25F
$$

COZ041-046-047-076>085-087-088-191700-
...PIKES PEAK/PALMER DIVIDE AND SOUTHERN FOOTHILLS...

CITY           SKY/WX    TMP DP  RH WIND       PRES   REMARKS
COLO. SPRINGS  MOSUNNY   44  13  28 SE9G17    30.27F
A. F. ACADEMY  MOSUNNY   44  10  25 SE14      30.26F
SCHRIEVER AFB  NOT AVBL
CHEYENNE MTN   NOT AVBL
ELLICOTT         N/A    N/A N/A N/A S16G26    30.27F
FALCON         FAIR      44   8  23 SE16      30.28F
FORT CARSON    SUNNY     44  12  27 SE3       30.26F
LIMON          MOSUNNY   44  20  38 SE28G39   30.29F
MONUMENT HILL  MOSUNNY   43  12  28 S24G32    30.24F
CANON CITY     FAIR      46  14  27 CALM      30.26F
WALSENBURG     FAIR      48  12  23 N5        30.27F
TRINIDAD       SUNNY     55  10  16 N7        30.25F
$$

COZ042>045-048>051-090-091-191700-
...NORTHEAST COLORADO...

CITY           SKY/WX    TMP DP  RH WIND       PRES   REMARKS
GREELEY ARPT   MOSUNNY   53  21  28 SE20G25   30.25F
AKRON          SUNNY     48  27  44 S24G32    30.31F
BURLINGTON     SUNNY     50  29  44 S23G29    30.36F
WRAY           FAIR      52  30  43 SE14G22   30.37F
YUMA           NOT AVBL
STERLING       NOT AVBL
HOLYOKE        FAIR      54  32  43 SE16      30.37F
FORT MORGAN    FAIR      50  20  31 E10       30.28F
$$

COZ086-089-092>099-191700-
...SOUTHEAST COLORADO...

CITY           SKY/WX    TMP DP  RH WIND       PRES   REMARKS
PUEBLO         SUNNY     46  14  27 VRB3      30.28F
LA JUNTA       SUNNY     59  13  16 SE22G32   30.28F
LAMAR          MOSUNNY   53  23  31 SE22G31   30.33F
SPRINGFIELD      N/A     51  23  33 S24G31    30.36F
$$





USA.gov is the U.S. government's official web portal to all federal, state and local government web resources and services.